Погода в Городище

Украина / Черкасская область     49°17′32″N   31°27′28″E
темп.,
°C
ветер,
м/с
пор.,
м/с
влажн.,
%
обл.,
%
осадки,
мм/ч
давл.,
гПа
погр.,
м
28 сентября, вт
вт2800:00+9ссв388218 0.1 1023300
03:00+7ссв34935 0.1 102378
06:00+6с23965 0.0 102464
09:00+9ссв46805 0.0 1024356
12:00+14св455417 0.0 10251322
15:00+14св4448100 0.1 10241628
18:00+13ссв4758100 0.1 1025373
21:00+11св4871100 0.1 1027408
29 сентября, ср
ср2900:00+10св3681100 0.3 1028279
03:00+9св3787100 0.5 1029290
06:00+9всв4786100 0.1 1029387
09:00+9всв68725 0.1 1031606
12:00+12всв665257 0.0 10311326
15:00+12всв5652100 0.0 10311516
18:00+11всв4552100 0.0 1031981
21:00+11всв2554100 0.0 1032219
30 сентября, чт
чт3000:00+7св35673 0.0 103291
03:00+6всв33725 0.0 103247
06:00+5всв22745 0.0 103327
09:00+9в35575 0.0 1033328
12:00+13вюв44365 0.0 10331219
15:00+15в44305 0.0 10321459
18:00+12всв47405 0.0 1032195
21:00+8вюв33495 0.0 103346
1 октября, пт
пт100:00+7в22525 0.0 103324
03:00+6вюв22565 0.0 103415
06:00+5вюв22550 0.0 103417
09:00+9вюв24445 0.0 1034209
12:00+14юв34325 0.0 10341171
15:00+16вюв33291 0.0 10321478
18:00+13в35405 0.0 1032108
21:00+9вюв36506 0.0 1033100
2 октября, сб
сб200:00+8юв335124 0.0 103343
03:00+7юв235379 0.0 103230
06:00+6юв335451 0.0 103237
09:00+10юв364367 0.0 1032241
12:00+15юв563055 0.0 10311166
15:00+17юв562665 0.0 10291443
18:00+14вюв353429 0.0 102899
21:00+9вюв36459 0.0 102994